Location: Chilton Park
(37.7711°N, 100.0276°W)
Time: 14:40:13
(UTC+00:00)

CBERS 1 LM4 rocket - Pass Details

Date: 08 December 2021
Orbit: 701 x 841 km, 98.8° (Epoch: 19 January)

Event Time Altitude Azimuth Distance (km) Brightness Sun altitude
Rises 11:58:56 0° 11° (N) 3,167 7.7 -20.0°
Reaches altitude 10° 12:01:11 10° 9° (N) 2,259 6.9 -19.6°
Maximum altitude 12:06:08 74° 286° (WNW) 794 4.3 -18.6°
Drops below altitude 10° 12:11:16 10° 201° (SSW) 2,335 6.9 -17.7°
Sets 12:13:37 0° 200° (SSW) 3,281 7.7 -17.2°
